Regional Weather Roundup
Issued by NWS Nashville, TN

Home | Current Version | Previous Version | Text Only | Print | Product List | Glossary On
Versions: 1 2 3 4 5 6 7 8 9 10 11 12 13 14 15 16 17 18 19 20 21 22 23 24 25 26 27 28 29 30 31 32 33 34 35 36 37 38 39 40 41 42 43 44 45 46 47 48 49 50
000
ASUS44 KOHX 301010
RWROHX
MIDDLE TENNESSEE HOURLY WEATHER ROUNDUP
NATIONAL WEATHER SERVICE NASHVILLE TN
500 AM CDT THU JUL 30 2015

NOTE: "FAIR" INDICATES FEW OR NO CLOUDS BELOW 12,000 FEET WITH
NO SIGNIFICANT WEATHER AND/OR OBSTRUCTIONS TO VISIBILITY.

* THESE REPORTS ARE NOT UNDER NWS QUALITY CONTROL AND MAY NOT
  REPORT WEATHER SUCH AS PRECIPITATION AND FOG.


TNZ005>011-023>034-057-059-062>066-078-080-301100
...NORTHERN MIDDLE TENNESSEE...

CITY           SKY/WX    TMP DP  RH WIND       PRES   REMARKS
CLARKSVILLE    MOCLDY    74  68  81 N8        30.06R
CROSSVILLE     CLEAR     71  67  87 NW5       30.07F
DICKSON        MOCLDY    73  72  94 N6        30.05R
NASHVILLE      MOCLDY    78  74  87 N8        30.03S
ROCKWOOD       CLEAR     72  67  84 N6        30.05S
SMYRNA         CLOUDY    76  74  93 N6        30.03R
$$
TNZ056-058-060-061-075>077-079-093>097-301100
...SOUTHERN MIDDLE TENNESSEE...

CITY           SKY/WX    TMP DP  RH WIND       PRES   REMARKS
COLUMBIA       PTCLDY    73  73 100 CALM      30.02S
LEWISBURG      PTCLDY    74  71  90 CALM      30.02R
MCMINNVILLE    PTCLDY    72  72 100 CALM      30.04R
SHELBYVILLE    CLEAR     73  73 100 CALM      30.03S
TULLAHOMA      CLEAR     72  68  88 CALM      30.04S
WINCHESTER     CLEAR     73  72  94 CALM      30.02S
$$


...KEY TO REMARKS...
VSB - VISIBILITY IN MILES
WCI - WIND CHILL INDEX
HX  - HEAT INDEX



USA.gov is the U.S. government's official web portal to all federal, state and local government web resources and services.